Regional Weather Roundup
Issued by NWS

Home | Current Version | Previous Version | Graphics & Text | Print | Product List | Glossary On
Versions: 1 2 3 4 5 6 7 8 9 10 11 12 13 14 15 16 17 18 19 20 21 22 23 24 25 26 27 28 29 30 31 32 33 34 35 36 37 38 39 40 41 42 43 44 45 46 47 48 49 50
788
ASUS45 KBOU 210207
RWRCO

WEATHER ROUNDUP FOR COLORADO
NATIONAL WEATHER SERVICE DENVER/BOULDER CO
700 PM MST FRI JAN 20 2017

NOTE: "FAIR" INDICATES FEW OR NO CLOUDS BELOW 12000 FEET WITH NO
SIGNIFICANT WEATHER AND/OR OBSTRUCTIONS TO VISIBILITY.

COZ001>005-013-030-031-210300-
...NORTHWEST COLORADO...

CITY           SKY/WX    TMP DP  RH WIND       PRES   REMARKS
CRAIG          CLOUDY    28  21  75 E6        29.49F WCI  22
HAYDEN         CLOUDY    25  19  80 SE6       29.49F WCI  18
MEEKER         CLOUDY    25  23  92 NE5       29.49S WCI  19
MOUNT WERNER   NOT AVBL
STEAMBOAT SPGS CLOUDY    24  22  93 CALM      29.49F
WALDEN           N/A     21  14  73 S8        29.48F WCI  12
$$

COZ006>008-011-210300-
...WEST CENTRAL VALLEYS...

CITY           SKY/WX    TMP DP  RH WIND       PRES   REMARKS
GRAND JUNCTION MOCLDY    32  32 100 E3        29.50F
MONTROSE       CLOUDY    35  22  58 CALM      29.54S
EAGLE          CLOUDY    25  23  93 CALM      29.53S
RIFLE          FAIR      31  28  89 SE5       29.52R WCI  26
DELTA          CLOUDY    37  30  74 NE8       29.54F
NUCLA          CLOUDY    34  25  69 S8        29.57S WCI  27
$$

COZ017>023-064>068-210300-
...SOUTHWEST COLORADO...

CITY           SKY/WX    TMP DP  RH WIND       PRES   REMARKS
DURANGO        LGT SNOW  28  26  92 CALM      29.60R VSB 1
CORTEZ         LGT SNOW  32  31  96 CALM      29.57F FOG
PAGOSA SPRINGS CLOUDY    25  22  91 CALM      29.60S
TELLURIDE      CLOUDY    26  12  55 S12G18    29.54S WCI  15
WOLF CREEK PAS CLOUDY     9   9 100 SW18G26   29.55S WCI -10
$$

COZ009-010-012-014-032>034-037-058>063-210300-
...CENTRAL COLORADO...

CITY           SKY/WX    TMP DP  RH WIND       PRES   REMARKS
ASPEN          CLOUDY    17  14  88 W5        29.49S WCI  10
BUENA VISTA    FAIR      26   9  47 W9        29.48S WCI  17
COPPER MTN     LGT SNOW  14   9  79 MISG      29.47R
BERTHOUD PASS  NOT AVBL
COTTONWOOD PAS FAIR      27   7  43 W12G24    29.46F WCI  16
GUNNISON       FAIR      15  11  83 N5        29.55R WCI   8
KREMMLING      FLURRIES  27  23  86 CALM      29.51S
LEADVILLE      FAIR      11   7  84 NE7       29.47S WCI   0
MONARCH PASS   CLOUDY    12   9  85 W6        29.58S WCI   3
SALIDA         FAIR      29  17  59 SW3       29.57S
SUNLIGHT       FOG       14  10  85 MISG      29.51S VSB 1/2
WILKERSON PASS FAIR      14  10  85 W7G20     29.47S WCI   4
$$

COZ069>075-210300-
...SAN LUIS VALLEY/SANGRE DE CRISTO MOUNTAINS...

CITY           SKY/WX    TMP DP  RH WIND       PRES   REMARKS
ALAMOSA        FAIR      21  10  62 SW10      29.54R WCI  10
LA VETA PASS   FAIR      16  10  79 NE32G52   29.47F WCI  -5
SAGUACHE       FAIR      18  14  86 W6        29.54S WCI   9
$$

COZ035-036-038>040-210300-
...NORTHERN COLORADO FRONT RANGE...

CITY           SKY/WX    TMP DP  RH WIND       PRES   REMARKS
DENVER INTL AP FAIR      30  25  81 SE12      29.41S WCI  20
DMNS CITY PARK   N/A     37  27  68 E15       29.42S
AURORA         PTCLDY    31  28  88 SE12      29.42S WCI  22
FRONT RANGE AP NOT AVBL
ERIE MUNI ARPT FAIR      37  29  73 SE9       29.41S
BOULDER MUN AP FAIR      36  28  75 SW3       29.42R
CENTENNIAL     FAIR      33  25  72 CALM      29.42R
BROOMFIELD     MOCLDY    37  25  60 CALM      29.42R
FORT COLLINS   FAIR      32  27  80 CALM      29.42R
LONGMONT       FAIR      36  29  76 W3        29.44R
$$

COZ041-046-047-076>085-087-088-210300-
...PIKES PEAK/PALMER DIVIDE AND SOUTHERN FOOTHILLS...

CITY           SKY/WX    TMP DP  RH WIND       PRES   REMARKS
COLO. SPRINGS  CLOUDY    33  30  88 E7        29.45R WCI  27
A. F. ACADEMY  FAIR      32  28  86 SE8       29.44R WCI  25
SCHRIEVER AFB  NOT AVBL
ELLICOTT       CLOUDY   N/A N/A N/A CALM      29.44R
FALCON         CLOUDY    32  30  93 CALM      29.46S
FORT CARSON    FAIR      29  27  92 NE3       29.43R
LIMON          FAIR      26  26 100 CALM      29.45R
MONUMENT HILL  MOCLDY    28  27  93 S9        29.45R WCI  20
TRINIDAD       FAIR      35  15  44 W10       29.48R WCI  27
$$

COZ042>045-048>051-090-091-210300-
...NORTHEAST COLORADO...

CITY           SKY/WX    TMP DP  RH WIND       PRES   REMARKS
GREELEY ARPT   FAIR      34  27  75 E6        29.42S WCI  29
AKRON          CLOUDY    34  26  72 NW7       29.43R WCI  28
BURLINGTON     CLOUDY    36  33  89 SW14      29.45R
WRAY           NOT AVBL
STERLING       CLOUDY    34  30  86 N6        29.42R WCI  29
HOLYOKE        FAIR      37  32  81 NW12G17   29.41S
FORT MORGAN    FAIR      35  28  75 S3        29.44S
$$

COZ086-089-092>099-210300-
...SOUTHEAST COLORADO...

CITY           SKY/WX    TMP DP  RH WIND       PRES   REMARKS
PUEBLO         FAIR      31  29  92 CALM      29.44R
LA JUNTA       FAIR      34  30  85 S7        29.45S WCI  28
LAMAR          CLOUDY    30  28  92 CALM      29.46R
SPRINGFIELD      N/A     24  23  96 NW7       29.47F WCI  16
$$




USA.gov is the U.S. government's official web portal to all federal, state and local government web resources and services.